Weather History for Alva, OK

Change the Weather History Date:

Monday, February 11, 2013

  Actual Average Record
Temperature  
Mean Temperature 34 °F -  
Max Temperature 48 °F 50 °F 87 °F (1962)
Min Temperature 21 °F 27 °F -5 °F (1981)
Degree Days  
Heating Degree Days 30    
Moisture  
Dew Point 19 °F    
Average Humidity 54    
Maximum Humidity 86    
Minimum Humidity 27    
Precipitation  
Precipitation 0.00 in - - ()
Sea Level Pressure  
Sea Level Pressure 30.16 in    
Wind  
Wind Speed 8 mph (NNE)    
Max Wind Speed 13 mph    
Max Gust Speed 16 mph    
Visibility 10 miles    
Events      
Averages and records for this station are not official NWS values.
T = Trace of Precipitation, MM = Missing Value Source: NWS Daily Summary

Daily Weather History Graph

Daily Weather History Graph

Search for Another Location

Airport:

Trip Planner

Search our weather history database for the weather conditions in past years. The results will help you decide how hot, cold, wet, or windy it might be!

Date:

Astronomy

Feb. 11, 2013 Rise Set
Actual Time 7:27 AM CST 6:11 PM CST
Civil Twilight 7:00 AM CST 6:37 PM CST
Nautical Twilight 6:29 AM CST 7:08 PM CST
Astronomical Twilight 5:59 AM CST 7:38 PM CST
Moon 7:56 AM CST (2/11) 8:05 PM CST (2/11)
Length of Visible Light 11h 37m
Length of Day
10h 44m
Waxing Crescent, 3% of the Moon is Illuminated
Feb 11
Waxing Crescent
Feb 17
First Quarter
Feb 25
Full
Mar 4
Last Quarter
Mar 11
New

Hourly Weather History & Observations

Time (CST) Temp. Windchill Dew Point Humidity Pressure Visibility Wind Dir Wind Speed Gust Speed Precip Events Conditions
12:10 AM 32.0 °F 23.6 °F 23.0 °F 69% 30.08 in 10.0 mi North 10.4 mph - N/A   Clear
12:30 AM 32.0 °F 22.5 °F 23.0 °F 69% 30.08 in 10.0 mi NNW 12.7 mph - N/A   Clear
12:50 AM 32.0 °F 22.5 °F 24.8 °F 75% 30.09 in 10.0 mi NNW 12.7 mph - N/A   Partly Cloudy
1:10 AM 32.0 °F 24.2 °F 23.0 °F 69% 30.10 in 10.0 mi NNW 9.2 mph - N/A   Partly Cloudy
1:30 AM 32.0 °F 23.6 °F 23.0 °F 69% 30.11 in 10.0 mi NNW 10.4 mph - N/A   Partly Cloudy
1:50 AM 30.2 °F 24.3 °F 23.0 °F 75% 30.12 in 10.0 mi NNW 5.8 mph - N/A   Partly Cloudy
2:10 AM 28.4 °F 19.1 °F 23.0 °F 80% 30.12 in 10.0 mi North 10.4 mph - N/A   Scattered Clouds
2:30 AM 28.4 °F 18.5 °F 23.0 °F 80% 30.13 in 10.0 mi North 11.5 mph - N/A   Partly Cloudy
2:50 AM 32.0 °F 23.6 °F 23.0 °F 69% 30.13 in 10.0 mi North 10.4 mph - N/A   Clear
3:10 AM 30.2 °F 21.9 °F 21.2 °F 69% 30.14 in 10.0 mi North 9.2 mph - N/A   Clear
3:30 AM 28.4 °F 21.2 °F 19.4 °F 69% 30.15 in 10.0 mi NNW 6.9 mph - N/A   Clear
3:50 AM 26.6 °F 18.2 °F 19.4 °F 74% 30.14 in 10.0 mi NW 8.1 mph - N/A   Clear
4:10 AM 26.6 °F 19.1 °F 19.4 °F 74% 30.14 in 10.0 mi NNW 6.9 mph - N/A   Scattered Clouds
4:30 AM 24.8 °F 17.9 °F 17.6 °F 74% 30.14 in 10.0 mi NW 5.8 mph - N/A   Partly Cloudy
4:50 AM 23.0 °F 14.7 °F 17.6 °F 80% 30.14 in 10.0 mi NNW 6.9 mph - N/A   Partly Cloudy
5:10 AM 26.6 °F 19.1 °F 19.4 °F 74% 30.15 in 10.0 mi NNW 6.9 mph - N/A   Scattered Clouds
5:30 AM 26.6 °F 19.1 °F 19.4 °F 74% 30.16 in 10.0 mi NNW 6.9 mph - N/A   Scattered Clouds
5:50 AM 24.8 °F 17.9 °F 19.4 °F 80% 30.17 in 10.0 mi NW 5.8 mph - N/A   Scattered Clouds
6:10 AM 24.8 °F 19.1 °F 19.4 °F 80% 30.18 in 10.0 mi WNW 4.6 mph - N/A   Partly Cloudy
6:30 AM 23.0 °F 14.7 °F 17.6 °F 80% 30.18 in 10.0 mi NW 6.9 mph - N/A   Partly Cloudy
6:50 AM 23.0 °F 14.7 °F 17.6 °F 80% 30.18 in 10.0 mi NW 6.9 mph - N/A   Partly Cloudy
7:10 AM 21.2 °F 13.6 °F 17.6 °F 86% 30.19 in 10.0 mi NW 5.8 mph - N/A   Clear
7:30 AM 21.2 °F 11.7 °F 17.6 °F 86% 30.20 in 10.0 mi NW 8.1 mph - N/A   Clear
7:50 AM 21.2 °F 13.6 °F 17.6 °F 86% 30.22 in 10.0 mi WNW 5.8 mph - N/A   Clear
8:10 AM 24.8 °F 16.9 °F 19.4 °F 80% 30.22 in 10.0 mi NW 6.9 mph - N/A   Clear
8:30 AM 28.4 °F 23.3 °F 23.0 °F 80% 30.22 in 10.0 mi NW 4.6 mph - N/A   Clear
8:50 AM 32.0 °F 23.6 °F 23.0 °F 69% 30.22 in 10.0 mi NNW 10.4 mph - N/A   Clear
9:10 AM 32.0 °F 24.2 °F 23.0 °F 69% 30.22 in 10.0 mi North 9.2 mph - N/A   Clear
9:30 AM 32.0 °F 24.2 °F 23.0 °F 69% 30.22 in 10.0 mi North 9.2 mph - N/A   Clear
9:50 AM 35.6 °F 29.2 °F 23.0 °F 60% 30.23 in 10.0 mi North 8.1 mph - N/A   Clear
10:10 AM 37.4 °F 29.8 °F 19.4 °F 48% 30.23 in 10.0 mi North 11.5 mph 16.1 mph N/A   Clear
10:30 AM 39.2 °F 32.0 °F 17.6 °F 42% 30.24 in 10.0 mi NNE 11.5 mph - N/A   Clear
10:50 AM 39.2 °F 33.0 °F 17.6 °F 42% 30.24 in 10.0 mi NNE 9.2 mph - N/A   Clear
11:10 AM 39.2 °F 33.6 °F 17.6 °F 42% 30.25 in 10.0 mi NE 8.1 mph - N/A   Clear
11:30 AM 41.0 °F 35.8 °F 15.8 °F 36% 30.24 in 10.0 mi NE 8.1 mph - N/A   Clear
11:50 AM 41.0 °F 35.2 °F 17.6 °F 39% 30.23 in 10.0 mi NNE 9.2 mph - N/A   Clear
12:10 PM 41.0 °F 37.1 °F 17.6 °F 39% 30.22 in 10.0 mi NE 5.8 mph - N/A   Clear
12:30 PM 44.6 °F 40.7 °F 17.6 °F 34% 30.21 in 10.0 mi NNE 6.9 mph - N/A   Clear
12:50 PM 44.6 °F 40.7 °F 17.6 °F 34% 30.19 in 10.0 mi NE 6.9 mph - N/A   Clear
1:10 PM 44.6 °F 40.7 °F 15.8 °F 31% 30.18 in 10.0 mi NNE 6.9 mph - N/A   Clear
1:30 PM 44.6 °F 41.4 °F 15.8 °F 31% 30.17 in 10.0 mi East 5.8 mph - N/A   Clear
1:50 PM 44.6 °F 40.7 °F 15.8 °F 31% 30.16 in 10.0 mi NNE 6.9 mph - N/A   Clear
2:10 PM 46.4 °F 42.9 °F 15.8 °F 29% 30.15 in 10.0 mi ENE 6.9 mph - N/A   Clear
2:30 PM 46.4 °F 45.2 °F 15.8 °F 29% 30.14 in 10.0 mi North 3.5 mph - N/A   Clear
2:50 PM 46.4 °F 45.2 °F 15.8 °F 29% 30.14 in 10.0 mi NW 3.5 mph - N/A   Clear
3:10 PM 48.2 °F - 15.8 °F 27% 30.13 in 10.0 mi ENE 5.8 mph - N/A   Clear
3:30 PM 48.2 °F - 15.8 °F 27% 30.12 in 10.0 mi NNE 6.9 mph - N/A   Clear
3:50 PM 46.4 °F 45.2 °F 15.8 °F 29% 30.12 in 10.0 mi NE 3.5 mph - N/A   Clear
4:50 PM 46.4 °F 43.5 °F 15.8 °F 29% 30.11 in 10.0 mi East 5.8 mph - N/A   Clear
5:10 PM 46.4 °F 42.4 °F 15.8 °F 29% 30.11 in 10.0 mi East 8.1 mph - N/A   Clear
5:30 PM 46.4 °F 43.5 °F 14.0 °F 27% 30.10 in 10.0 mi ENE 5.8 mph - N/A   Clear
5:50 PM 44.6 °F 42.2 °F 15.8 °F 31% 30.11 in 10.0 mi East 4.6 mph - N/A   Clear
6:10 PM 42.8 °F 40.1 °F 15.8 °F 34% 30.10 in 10.0 mi East 4.6 mph - N/A   Clear
6:30 PM 41.0 °F 37.1 °F 15.8 °F 36% 30.10 in 10.0 mi East 5.8 mph - N/A   Clear
6:50 PM 39.2 °F 35.0 °F 15.8 °F 39% 30.11 in 10.0 mi ESE 5.8 mph - N/A   Partly Cloudy
7:10 PM 39.2 °F 35.9 °F 15.8 °F 39% 30.12 in 10.0 mi ESE 4.6 mph - N/A   Partly Cloudy
7:30 PM 37.4 °F 33.8 °F 15.8 °F 41% 30.12 in 10.0 mi ESE 4.6 mph - N/A   Partly Cloudy
7:50 PM 39.2 °F 34.2 °F 15.8 °F 39% 30.13 in 10.0 mi ESE 6.9 mph - N/A   Mostly Cloudy
8:10 PM 37.4 °F 32.8 °F 15.8 °F 41% 30.13 in 9.0 mi ESE 5.8 mph - N/A   Overcast
8:30 PM 37.4 °F 32.8 °F 17.6 °F 45% 30.13 in 10.0 mi ESE 5.8 mph - N/A   Overcast
8:50 PM 39.2 °F 35.0 °F 17.6 °F 42% 30.14 in 9.0 mi SE 5.8 mph - N/A   Overcast
9:10 PM 37.4 °F 32.8 °F 17.6 °F 45% 30.14 in 10.0 mi SE 5.8 mph - N/A   Overcast
9:30 PM 37.4 °F 34.9 °F 17.6 °F 45% 30.14 in 10.0 mi SE 3.5 mph - N/A   Overcast
9:50 PM 37.4 °F 33.8 °F 17.6 °F 45% 30.14 in 10.0 mi SE 4.6 mph - N/A   Overcast
10:10 PM 35.6 °F - 17.6 °F 48% 30.15 in 10.0 mi Calm Calm - N/A   Mostly Cloudy
10:30 PM 35.6 °F 32.8 °F 19.4 °F 52% 30.16 in 10.0 mi North 3.5 mph - N/A   Mostly Cloudy
10:50 PM 33.8 °F 30.8 °F 19.4 °F 56% 30.16 in 10.0 mi NNE 3.5 mph - N/A   Overcast
11:10 PM 35.6 °F 29.9 °F 19.4 °F 52% 30.15 in 10.0 mi North 6.9 mph - N/A   Overcast
11:30 PM 35.6 °F 29.2 °F 17.6 °F 48% 30.13 in 10.0 mi NNE 8.1 mph - N/A   Overcast
11:50 PM 32.0 °F 24.8 °F 17.6 °F 55% 30.11 in 10.0 mi NE 8.1 mph - N/A   Mostly Cloudy